Terug naar catalogus

COSMOS 1694

ActiefMilitairPO
NORAD 16142·PAYLOAD·🇷🇺 Russia

Gelanceerd Oct 9, 1985 vanaf Plesetsk Cosmodrome

Loading…

Volgende Passages (komende 24 uur)

TLE

VersSource: Space-Track

Epoch: Sep 14, 2026, 14:31 UTC

1 16142U 85094E   26257.60488693  .00000011  00000-0  21020-5 0  9998
2 16142  82.6106 205.2746 0010693 220.5488 261.4589 12.63684607887958

Volg COSMOS 1694 in realtime met AllMySat

Download on the App Store